Location: ?????????
(54.7630°N, 39.4991°E)
Time: 07:04:03
(UTC+00:00)

Cosmos 2278 Rocket - Pass Details

Date: 14 April 2026
Orbit: 839 x 845 km, 71.0° (Epoch: 13 May)

Event Time Altitude Azimuth Distance (km) Brightness Sun altitude
Rises 18:53:32 0° 322° (NW) 3,418 7.1 -18.5°
Reaches altitude 10° 18:56:19 10° 311° (NW) 2,478 5.8 -18.7°
Maximum altitude 19:00:58 27° 255° (WSW) 1,583 3.8 -19.1°
Enters shadow 19:05:06 12° 203° (SSW) 2,311 4.2 -19.5°
